{"data":{"norad_id":68746,"intl_designator":"2026-082U","name":"STARLINK-37347","alt_names":[],"object_type":"PAYLOAD","status":"ACTIVE","operator":null,"country":"US","launch_date":"2026-04-15","launch_site_code":"AFWTR","launch_vehicle":null,"mission":null,"orbit_class":"UNKNOWN","rcs_meters":null,"size_class":null,"mass_kg":null,"dimensions":null,"purposes":["comms"],"wikipedia_slug":null,"has_3d_model":false,"image_url":null,"decayed_at":null,"tle_current":{"epoch":"2026-05-25T04:00:03.998880Z","epoch_age_seconds":54673,"freshness":"FRESH","line1":"1 68746U 26082U   26145.16671295 -.00014314  00000+0 -26166-3 0  9992","line2":"2 68746  97.2867   8.7852 0001879  71.9230  39.2525 15.49225897  6003","mean_motion":15.49225897,"eccentricity":0.0001879,"inclination_deg":97.2867,"raan_deg":8.7852,"arg_perigee_deg":71.923,"mean_anomaly_deg":39.2525,"bstar":-0.00026166,"rev_number":600,"period_min":92.949646839011,"perigee_km":417.71216399716,"apogee_km":420.26652407725,"semimajor_km":6797.1263440372,"source":"CELESTRAK","updated_at":"2026-05-25T13:38:22.030154Z"}}}